Overview Statistics Trail Chart Weather Telemetry Raw packets
 

This is the latest recevied weather packets stored in our database for station/object K6CEG. If no packets are shown the sender has not sent any weather packets the latest 10 day(s).

<< 87 88 89 90 91 92 93 >>
Time Temp. Humidity Pressure Rain* Wind** Luminosity Snow
1788033344 35.56° C 35% 1013.3 hPa 0 mm - 401 W/m² -
1788033040 35.56° C 36% 1013.6 hPa 0 mm - 442 W/m² -
1788032739 35.56° C 35% 1013.7 hPa 0 mm - 291 W/m² -
1788032435 35° C 34% 1014 hPa 0 mm - 841 W/m² -
1788032131 35.56° C 35% 1013.9 hPa 0 mm - 640 W/m² -
1788031827 36.11° C 34% 1013.9 hPa 0 mm - 378 W/m² -
1788031527 35.56° C 35% 1013.9 hPa 0 mm - 413 W/m² -
1788031227 34.44° C 35% 1014.2 hPa 0 mm - 430 W/m² -
1788030926 35.56° C 37% 1014 hPa 0 mm - 384 W/m² -
1788030625 35° C 37% 1014.3 hPa 0 mm - 940 W/m² -
1788030325 35° C 38% 1014.3 hPa 0 mm - 857 W/m² -
1788030022 35° C 40% 1014.3 hPa 0 mm - 776 W/m² -
1788029722 34.44° C 42% 1014.5 hPa 0 mm - 827 W/m² -
1788029417 33.89° C 43% 1014.4 hPa 0 mm - 497 W/m² -
1788029116 34.44° C 43% 1014.6 hPa 0 mm - 555 W/m² -
1788028811 33.89° C 43% 1014.8 hPa 0 mm - 621 W/m² -
1788028510 33.89° C 43% 1014.5 hPa 0 mm - 682 W/m² -
1788028206 33.89° C 44% 1014.8 hPa 0 mm - 816 W/m² -
1788027901 33.89° C 44% 1014.8 hPa 0 mm - 616 W/m² -
1788027595 33.89° C 44% 1014.5 hPa 0 mm - 847 W/m² -
1788027290 33.89° C 44% 1014.8 hPa 0 mm - 877 W/m² -
1788026989 33.33° C 45% 1014.6 hPa 0 mm - 847 W/m² -
1788026696 33.33° C 46% 1014.6 hPa 0 mm - 553 W/m² -
1788026379 32.78° C 46% 1014.9 hPa 0 mm - 856 W/m² -
1788026075 32.22° C 49% 1014.9 hPa 0 mm - 532 W/m² -

* Rain latest hour (hover to see other rain measurements)
** Current wind speed in m/s (hover to see current wind gust speed)